| time (UTC) | temp F | wind direction | speed MPH | gust MPH | rain 1hr in | rain 24hr in | rain mn in | humidity % | barometer mb |
| 20260507193307 | 56 | 270 | 5.0 | 12.0 | 0.00 | 0.21 | 0.09 | 81 | 1021.0 |
| 20260507192307 | 56 | 309 | 5.0 | 14.0 | 0.00 | 0.21 | 0.09 | 81 | 1020.8 |
| 20260507191808 | 56 | 286 | 5.0 | 13.0 | 0.00 | 0.21 | 0.09 | 81 | 1020.8 |
| 20260507190807 | 56 | 180 | 7.0 | 14.0 | 0.00 | 0.21 | 0.09 | 81 | 1020.8 |
| 20260507190307 | 56 | 246 | 5.0 | 12.0 | 0.00 | 0.21 | 0.09 | 81 | 1020.8 |
| 20260507185808 | 56 | 262 | 5.0 | 12.0 | 0.00 | 0.21 | 0.09 | 81 | 1020.6 |
| 20260507185307 | 56 | 289 | 5.0 | 12.0 | 0.00 | 0.21 | 0.09 | 82 | 1020.6 |
| 20260507184807 | 56 | 222 | 6.0 | 13.0 | 0.00 | 0.21 | 0.09 | 82 | 1020.6 |
| 20260507184308 | 56 | 290 | 5.0 | 12.0 | 0.00 | 0.21 | 0.09 | 82 | 1020.6 |
| 20260507183807 | 56 | 245 | 4.0 | 8.0 | 0.00 | 0.21 | 0.09 | 82 | 1020.4 |
| 20260507182806 | 56 | 248 | 3.0 | 6.0 | 0.00 | 0.21 | 0.09 | 83 | 1020.5 |
| 20260507182307 | 56 | 291 | 3.0 | 7.0 | 0.00 | 0.21 | 0.09 | 84 | 1020.3 |
| 20260507180807 | 56 | 272 | 4.0 | 7.0 | 0.00 | 0.21 | 0.09 | 83 | 1020.0 |
| 20260507175807 | 56 | 227 | 3.0 | 9.0 | 0.00 | 0.21 | 0.09 | 83 | 1020.1 |
| 20260507175308 | 56 | 250 | 3.0 | 12.0 | 0.00 | 0.21 | 0.09 | 82 | 1020.1 |
| 20260507174807 | 56 | 310 | 4.0 | 12.0 | 0.00 | 0.21 | 0.09 | 82 | 1019.9 |
| 20260507174308 | 56 | 240 | 7.0 | 14.0 | 0.00 | 0.21 | 0.09 | 81 | 1020.1 |
| 20260507173808 | 56 | 165 | 4.0 | 9.0 | 0.00 | 0.21 | 0.09 | 82 | 1020.1 |
| 20260507173307 | 56 | 268 | 3.0 | 12.0 | 0.00 | 0.21 | 0.09 | 82 | 1020.0 |
| 20260507172808 | 56 | 199 | 3.0 | 9.0 | 0.00 | 0.21 | 0.09 | 82 | 1020.0 |
| 20260507171806 | 55 | 223 | 3.0 | 10.0 | 0.00 | 0.21 | 0.09 | 82 | 1019.9 |
| 20260507170807 | 55 | 250 | 3.0 | 8.0 | 0.00 | 0.21 | 0.09 | 82 | 1019.9 |
| 20260507170307 | 55 | 333 | 3.0 | 8.0 | 0.00 | 0.21 | 0.09 | 82 | 1019.9 |
| 20260507165307 | 55 | 250 | 3.0 | 10.0 | 0.00 | 0.21 | 0.09 | 83 | 1019.9 |
| 20260507164808 | 55 | 249 | 2.0 | 12.0 | 0.00 | 0.21 | 0.09 | 83 | 1019.9 |
| 20260507164307 | 55 | 270 | 5.0 | 12.0 | 0.00 | 0.21 | 0.09 | 83 | 1020.0 |
| 20260507163808 | 55 | 245 | 4.0 | 12.0 | 0.00 | 0.21 | 0.09 | 83 | 1020.0 |
| 20260507162807 | 55 | 270 | 5.0 | 9.0 | 0.00 | 0.21 | 0.09 | 82 | 1020.0 |
| 20260507162307 | 55 | 225 | 5.0 | 12.0 | 0.00 | 0.21 | 0.09 | 82 | 1019.9 |
| 20260507161807 | 55 | 0 | 5.0 | 12.0 | 0.00 | 0.21 | 0.09 | 81 | 1019.9 |
| 20260507161307 | 55 | 249 | 6.0 | 12.0 | 0.00 | 0.21 | 0.09 | 82 | 1020.0 |
| 20260507160808 | 55 | 203 | 3.0 | 10.0 | 0.00 | 0.21 | 0.09 | 82 | 1020.1 |
| 20260507160307 | 55 | 270 | 4.0 | 13.0 | 0.00 | 0.21 | 0.09 | 82 | 1019.9 |
| 20260507155807 | 55 | 270 | 3.0 | 8.0 | 0.00 | 0.21 | 0.09 | 82 | 1020.0 |
| 20260507154307 | 55 | 299 | 5.0 | 10.0 | 0.00 | 0.21 | 0.09 | 82 | 1020.4 |
| 20260507153807 | 54 | 229 | 3.0 | 10.0 | 0.00 | 0.21 | 0.09 | 82 | 1020.4 |
| 20260507152307 | 54 | 248 | 5.0 | 10.0 | 0.00 | 0.21 | 0.09 | 82 | 1020.5 |
| 20260507151806 | 54 | 268 | 4.0 | 14.0 | 0.00 | 0.21 | 0.09 | 82 | 1020.7 |
| 20260507151307 | 54 | 212 | 5.0 | 12.0 | 0.00 | 0.21 | 0.09 | 82 | 1020.6 |
| 20260507150307 | 54 | 246 | 4.0 | 8.0 | 0.00 | 0.21 | 0.09 | 82 | 1020.4 |
| 20260507145307 | 54 | 272 | 3.0 | 8.0 | 0.00 | 0.21 | 0.09 | 82 | 1020.7 |
| 20260507144807 | 54 | 202 | 4.0 | 9.0 | 0.00 | 0.21 | 0.09 | 82 | 1020.6 |
| 20260507144308 | 54 | 187 | 4.0 | 10.0 | 0.00 | 0.21 | 0.09 | 82 | 1020.6 |
| 20260507143307 | 54 | 290 | 4.0 | 9.0 | 0.00 | 0.21 | 0.09 | 82 | 1020.6 |
| 20260507142807 | 54 | 288 | 3.0 | 7.0 | 0.00 | 0.21 | 0.09 | 81 | 1020.7 |
| 20260507141308 | 54 | 186 | 5.0 | 10.0 | 0.00 | 0.21 | 0.09 | 81 | 1020.8 |
| 20260507140808 | 54 | 249 | 3.0 | 8.0 | 0.00 | 0.21 | 0.09 | 81 | 1020.9 |
| 20260507135807 | 54 | 288 | 3.0 | 9.0 | 0.00 | 0.21 | 0.09 | 80 | 1020.9 |
| 20260507135307 | 54 | 227 | 5.0 | 15.0 | 0.00 | 0.21 | 0.09 | 79 | 1021.0 |
| 20260507134807 | 54 | 296 | 3.0 | 8.0 | 0.00 | 0.21 | 0.09 | 79 | 1020.8 |
| 20260507133807 | 54 | 249 | 4.0 | 10.0 | 0.00 | 0.21 | 0.09 | 79 | 1021.1 |
| 20260507133307 | 54 | 267 | 3.0 | 9.0 | 0.00 | 0.21 | 0.09 | 79 | 1021.0 |
| 20260507132807 | 54 | 270 | 2.0 | 9.0 | 0.00 | 0.22 | 0.09 | 79 | 1020.9 |
| 20260507132308 | 54 | 291 | 2.0 | 7.0 | 0.00 | 0.22 | 0.09 | 79 | 1021.1 |
| 20260507131307 | 54 | 270 | 3.0 | 8.0 | 0.00 | 0.22 | 0.09 | 79 | 1021.4 |
| 20260507130807 | 54 | 260 | 3.0 | 13.0 | 0.00 | 0.22 | 0.09 | 79 | 1021.5 |
| 20260507125808 | 54 | 292 | 5.0 | 13.0 | 0.00 | 0.23 | 0.09 | 79 | 1021.5 |
| 20260507125307 | 53 | 248 | 4.0 | 8.0 | 0.00 | 0.23 | 0.09 | 79 | 1021.6 |
| 20260507124807 | 53 | 310 | 3.0 | 8.0 | 0.00 | 0.23 | 0.09 | 79 | 1021.5 |
| 20260507124308 | 53 | 289 | 3.0 | 12.0 | 0.00 | 0.23 | 0.09 | 79 | 1021.6 |
| 20260507123807 | 53 | 240 | 2.0 | 8.0 | 0.00 | 0.23 | 0.09 | 79 | 1021.8 |
| 20260507123308 | 53 | 251 | 2.0 | 9.0 | 0.00 | 0.23 | 0.09 | 79 | 1021.9 |
| 20260507122308 | 53 | 271 | 3.0 | 7.0 | 0.00 | 0.23 | 0.09 | 79 | 1021.9 |
| 20260507121806 | 53 | 271 | 3.0 | 6.0 | 0.00 | 0.23 | 0.09 | 79 | 1022.0 |
| 20260507120807 | 53 | 357 | 3.0 | 10.0 | 0.00 | 0.23 | 0.09 | 79 | 1022.0 |
| 20260507120307 | 53 | 248 | 3.0 | 8.0 | 0.00 | 0.23 | 0.09 | 79 | 1021.9 |
| 20260507115807 | 53 | 230 | 3.0 | 9.0 | 0.00 | 0.23 | 0.09 | 79 | 1021.8 |
| 20260507115307 | 53 | 250 | 3.0 | 8.0 | 0.00 | 0.24 | 0.09 | 78 | 1022.1 |
| 20260507114807 | 52 | 309 | 2.0 | 10.0 | 0.00 | 0.25 | 0.09 | 78 | 1022.0 |
| 20260507114307 | 52 | 295 | 4.0 | 9.0 | 0.00 | 0.27 | 0.09 | 78 | 1022.0 |
| 20260507113807 | 52 | 358 | 1.0 | 5.0 | 0.00 | 0.31 | 0.09 | 78 | 1022.1 |
| 20260507112808 | 52 | 225 | 3.0 | 6.0 | 0.00 | 0.32 | 0.09 | 78 | 1022.1 |
| 20260507071806 | 54 | 246 | 3.0 | 8.0 | 0.00 | 0.32 | 0.09 | 67 | 1022.1 |
| 20260507070807 | 55 | 249 | 7.0 | 17.0 | 0.00 | 0.32 | 0.09 | 62 | 1022.2 |
| 20260507070307 | 55 | 268 | 3.0 | 9.0 | 0.00 | 0.32 | 0.09 | 62 | 1021.9 |
| 20260507065808 | 55 | 247 | 3.0 | 7.0 | 0.00 | 0.32 | 0.09 | 62 | 1021.9 |
| 20260507065307 | 55 | 205 | 3.0 | 8.0 | 0.00 | 0.32 | 0.09 | 62 | 1021.9 |
| 20260507064308 | 55 | 229 | 3.0 | 7.0 | 0.00 | 0.32 | 0.09 | 61 | 1021.8 |
| 20260507063807 | 55 | 248 | 4.0 | 8.0 | 0.00 | 0.32 | 0.09 | 60 | 1022.0 |
| 20260507062807 | 55 | 206 | 3.0 | 13.0 | 0.00 | 0.32 | 0.09 | 59 | 1022.0 |
| 20260507062307 | 55 | 229 | 6.0 | 12.0 | 0.00 | 0.32 | 0.09 | 58 | 1022.1 |
| 20260507061806 | 55 | 183 | 6.0 | 14.0 | 0.00 | 0.32 | 0.09 | 58 | 1022.0 |
| 20260507060307 | 56 | 206 | 4.0 | 9.0 | 0.00 | 0.32 | 0.09 | 64 | 1022.0 |
| 20260507055807 | 56 | 265 | 3.0 | 9.0 | 0.00 | 0.32 | 0.09 | 65 | 1022.0 |
| 20260507053807 | 55 | 248 | 2.0 | 7.0 | 0.00 | 0.32 | 0.09 | 67 | 1022.0 |
| 20260507053308 | 55 | 244 | 5.0 | 7.0 | 0.00 | 0.32 | 0.09 | 66 | 1021.9 |
| 20260507052807 | 54 | 250 | 3.0 | 9.0 | 0.00 | 0.32 | 0.09 | 67 | 1022.0 |
| 20260507052308 | 54 | 292 | 2.0 | 7.0 | 0.00 | 0.32 | 0.09 | 69 | 1022.0 |
| 20260507051807 | 54 | 205 | 3.0 | 7.0 | 0.00 | 0.32 | 0.09 | 69 | 1022.4 |
| 20260507051307 | 54 | 251 | 3.0 | 7.0 | 0.00 | 0.32 | 0.09 | 68 | 1022.2 |
| 20260507050307 | 54 | 201 | 3.0 | 10.0 | 0.00 | 0.32 | 0.09 | 67 | 1022.2 |
| 20260507045807 | 54 | 248 | 4.0 | 14.0 | 0.00 | 0.32 | 0.09 | 65 | 1022.0 |
| 20260507045308 | 55 | 246 | 6.0 | 9.0 | 0.00 | 0.32 | 0.09 | 62 | 1022.2 |
| 20260507044807 | 55 | 139 | 6.0 | 14.0 | 0.00 | 0.32 | 0.09 | 59 | 1021.9 |
| 20260507042807 | 55 | 180 | 4.0 | 12.0 | 0.00 | 0.32 | 0.09 | 61 | 1021.9 |
| 20260507042307 | 55 | 244 | 6.0 | 10.0 | 0.00 | 0.32 | 0.09 | 60 | 1022.1 |
| 20260507041807 | 55 | 309 | 5.0 | 13.0 | 0.00 | 0.32 | 0.09 | 62 | 1022.0 |
| 20260507041307 | 55 | 211 | 5.0 | 14.0 | 0.00 | 0.32 | 0.09 | 62 | 1022.0 |
| 20260507040808 | 55 | 246 | 6.0 | 13.0 | 0.00 | 0.32 | 0.09 | 61 | 1022.0 |
| 20260507040307 | 56 | 186 | 3.0 | 13.0 | 0.00 | 0.32 | 0.09 | 63 | 1022.0 |
| 20260507035808 | 55 | 246 | 5.0 | 12.0 | 0.00 | 0.32 | 0.09 | 62 | 1022.1 |
| 20260507035307 | 55 | 160 | 4.0 | 10.0 | 0.00 | 0.32 | 0.09 | 64 | 1022.1 |
| 20260507034308 | 56 | 311 | 3.0 | 6.0 | 0.00 | 0.32 | 0.09 | 64 | 1021.9 |
| 20260507033807 | 55 | 251 | 2.0 | 10.0 | 0.00 | 0.32 | 0.09 | 65 | 1022.2 |
| 20260507033308 | 54 | 290 | 6.0 | 13.0 | 0.00 | 0.32 | 0.09 | 63 | 1022.2 |
| 20260507031308 | 53 | 226 | 5.0 | 10.0 | 0.00 | 0.32 | 0.09 | 65 | 1022.5 |
| 20260507030808 | 53 | 204 | 4.0 | 13.0 | 0.00 | 0.32 | 0.09 | 66 | 1022.4 |
| 20260507030307 | 53 | 292 | 7.0 | 13.0 | 0.00 | 0.32 | 0.09 | 66 | 1022.6 |
| 20260507025808 | 53 | 183 | 4.0 | 13.0 | 0.00 | 0.32 | 0.09 | 66 | 1022.4 |
| 20260507025307 | 53 | 244 | 6.0 | 14.0 | 0.00 | 0.32 | 0.09 | 66 | 1022.3 |
| 20260507024807 | 53 | 227 | 6.0 | 13.0 | 0.00 | 0.32 | 0.09 | 66 | 1022.2 |
| 20260507024307 | 53 | 247 | 4.0 | 9.0 | 0.00 | 0.32 | 0.09 | 66 | 1022.6 |
| 20260507023807 | 53 | 273 | 5.0 | 14.0 | 0.00 | 0.32 | 0.09 | 68 | 1022.5 |
| 20260507023308 | 53 | 270 | 7.0 | 12.0 | 0.00 | 0.32 | 0.09 | 67 | 1022.6 |
| 20260507022807 | 51 | 265 | 5.0 | 12.0 | 0.00 | 0.32 | 0.09 | 72 | 1022.6 |
| 20260507022307 | 51 | 181 | 5.0 | 10.0 | 0.00 | 0.32 | 0.09 | 74 | 1022.8 |
| 20260507021806 | 50 | 250 | 3.0 | 14.0 | 0.00 | 0.32 | 0.09 | 78 | 1022.9 |
| 20260507021307 | 51 | 247 | 7.0 | 14.0 | 0.00 | 0.32 | 0.09 | 75 | 1023.0 |
| 20260507020806 | 51 | 290 | 8.0 | 15.0 | 0.00 | 0.32 | 0.09 | 73 | 1023.1 |
| 20260507020307 | 52 | 160 | 7.0 | 14.0 | 0.00 | 0.32 | 0.09 | 71 | 1023.0 |
| 20260507015807 | 52 | 287 | 3.0 | 13.0 | 0.00 | 0.32 | 0.09 | 69 | 1022.9 |
| 20260507015308 | 52 | 114 | 3.0 | 12.0 | 0.00 | 0.32 | 0.09 | 70 | 1022.8 |
| 20260507014808 | 52 | 203 | 4.0 | 13.0 | 0.00 | 0.32 | 0.09 | 69 | 1023.0 |
| 20260507014307 | 52 | 248 | 5.0 | 9.0 | 0.00 | 0.32 | 0.09 | 71 | 1022.9 |
| 20260507013807 | 51 | 243 | 5.0 | 9.0 | 0.00 | 0.32 | 0.09 | 71 | 1023.0 |
| 20260507013308 | 50 | 226 | 2.0 | 6.0 | 0.00 | 0.32 | 0.09 | 76 | 1022.9 |
| 20260507012807 | 49 | 267 | 3.0 | 9.0 | 0.00 | 0.32 | 0.09 | 76 | 1022.9 |
| 20260507012308 | 49 | 204 | 3.0 | 9.0 | 0.00 | 0.32 | 0.09 | 76 | 1022.9 |
| 20260507011806 | 49 | 246 | 4.0 | 10.0 | 0.01 | 0.32 | 0.09 | 78 | 1022.8 |
| 20260507011308 | 49 | 270 | 4.0 | 10.0 | 0.02 | 0.32 | 0.09 | 78 | 1022.9 |
| 20260507010806 | 49 | 271 | 5.0 | 10.0 | 0.03 | 0.32 | 0.09 | 78 | 1022.9 |
| 20260507005807 | 48 | 269 | 4.0 | 9.0 | 0.05 | 0.32 | 0.09 | 80 | 1022.9 |
| 20260507005308 | 48 | 225 | 3.0 | 6.0 | 0.05 | 0.32 | 0.09 | 83 | 1022.8 |
| 20260507004807 | 48 | 204 | 2.0 | 6.0 | 0.05 | 0.32 | 0.09 | 84 | 1022.8 |
| 20260507004308 | 47 | 246 | 3.0 | 7.0 | 0.05 | 0.32 | 0.09 | 84 | 1022.8 |
| 20260507003807 | 47 | 266 | 4.0 | 9.0 | 0.06 | 0.32 | 0.09 | 84 | 1022.6 |
| 20260507002808 | 46 | 270 | 3.0 | 9.0 | 0.06 | 0.32 | 0.09 | 87 | 1022.8 |
| 20260507002307 | 46 | 225 | 1.0 | 6.0 | 0.07 | 0.32 | 0.09 | 88 | 1022.9 |
| 20260507001808 | 46 | 225 | 1.0 | 2.0 | 0.06 | 0.31 | 0.09 | 88 | 1023.0 |
| 20260507001307 | 46 | 248 | 1.0 | 2.0 | 0.08 | 0.30 | 0.08 | 87 | 1023.0 |
| 20260507000807 | 46 | 202 | 1.0 | 6.0 | 0.07 | 0.29 | 0.07 | 86 | 1023.0 |
| 20260507000307 | 46 | 248 | 2.0 | 6.0 | 0.05 | 0.27 | 0.05 | 86 | 1022.7 |
| 20260506235807 | 46 | 251 | 1.0 | 3.0 | 0.05 | 0.27 | 0.05 | 86 | 1022.6 |
| 20260506234807 | 45 | 270 | 0.0 | 1.0 | 0.05 | 0.27 | 0.05 | 87 | 1022.6 |
| 20260506234307 | 45 | 244 | 0.0 | 2.0 | 0.05 | 0.27 | 0.05 | 86 | 1022.8 |
| 20260506233807 | 45 | 183 | 2.0 | 5.0 | 0.05 | 0.26 | 0.04 | 84 | 1022.8 |
| 20260506233308 | 45 | 223 | 2.0 | 3.0 | 0.05 | 0.26 | 0.04 | 85 | 1022.5 |
| 20260506232808 | 45 | 248 | 1.0 | 5.0 | 0.05 | 0.26 | 0.04 | 85 | 1022.6 |
| 20260506232307 | 45 | 248 | 2.0 | 6.0 | 0.04 | 0.26 | 0.03 | 84 | 1022.6 |
| 20260506231807 | 46 | 250 | 2.0 | 8.0 | 0.04 | 0.26 | 0.03 | 82 | 1022.6 |
| 20260506231308 | 46 | 270 | 2.0 | 7.0 | 0.01 | 0.23 | 0.00 | 81 | 1022.5 |
| 20260506230807 | 45 | 227 | 2.0 | 7.0 | 0.01 | 0.23 | 0.00 | 83 | 1022.3 |
| 20260506230306 | 45 | 269 | 3.0 | 7.0 | 0.01 | 0.23 | 0.00 | 84 | 1022.3 |
| 20260506225807 | 44 | 248 | 2.0 | 6.0 | 0.02 | 0.23 | 0.23 | 84 | 1022.1 |
| 20260506225308 | 44 | 248 | 1.0 | 5.0 | 0.02 | 0.23 | 0.23 | 85 | 1022.2 |
| 20260506224807 | 44 | 250 | 2.0 | 3.0 | 0.03 | 0.23 | 0.23 | 85 | 1022.3 |
| 20260506224307 | 45 | 248 | 1.0 | 3.0 | 0.04 | 0.23 | 0.23 | 84 | 1022.3 |
| 20260506223807 | 45 | 249 | 2.0 | 7.0 | 0.03 | 0.22 | 0.22 | 82 | 1022.3 |
| 20260506223308 | 45 | 248 | 3.0 | 10.0 | 0.03 | 0.22 | 0.22 | 82 | 1022.0 |
| 20260506222807 | 45 | 245 | 3.0 | 7.0 | 0.03 | 0.22 | 0.22 | 83 | 1021.6 |
| 20260506222307 | 44 | 312 | 3.0 | 8.0 | 0.03 | 0.22 | 0.22 | 83 | 1021.7 |
| 20260506221808 | 44 | 315 | 2.0 | 8.0 | 0.03 | 0.22 | 0.22 | 84 | 1021.7 |
| 20260506221307 | 44 | 266 | 2.0 | 8.0 | 0.04 | 0.22 | 0.22 | 84 | 1021.7 |
| 20260506220807 | 44 | 287 | 3.0 | 7.0 | 0.05 | 0.22 | 0.22 | 84 | 1021.6 |
| 20260506220308 | 44 | 269 | 1.0 | 6.0 | 0.05 | 0.22 | 0.22 | 84 | 1021.7 |
| 20260506215807 | 44 | 241 | 2.0 | 6.0 | 0.04 | 0.21 | 0.21 | 83 | 1021.9 |
| 20260506215307 | 44 | 223 | 2.0 | 5.0 | 0.04 | 0.21 | 0.21 | 83 | 1022.2 |
| 20260506214807 | 44 | 245 | 3.0 | 5.0 | 0.03 | 0.20 | 0.20 | 82 | 1021.7 |
| 20260506214308 | 43 | 224 | 2.0 | 6.0 | 0.02 | 0.19 | 0.19 | 82 | 1021.7 |
| 20260506213807 | 43 | 271 | 3.0 | 6.0 | 0.02 | 0.19 | 0.19 | 84 | 1021.3 |
| 20260506213307 | 43 | 270 | 3.0 | 8.0 | 0.02 | 0.19 | 0.19 | 84 | 1021.2 |
| 20260506212808 | 43 | 289 | 3.0 | 12.0 | 0.02 | 0.19 | 0.19 | 85 | 1020.9 |
| 20260506212308 | 42 | 287 | 1.0 | 5.0 | 0.02 | 0.19 | 0.19 | 85 | 1021.2 |
| 20260506211806 | 42 | 243 | 1.0 | 3.0 | 0.02 | 0.19 | 0.19 | 85 | 1021.5 |
| 20260506211308 | 42 | 180 | 2.0 | 3.0 | 0.01 | 0.18 | 0.18 | 84 | 1021.4 |
| 20260506210808 | 42 | 202 | 1.0 | 2.0 | 0.00 | 0.17 | 0.17 | 85 | 1021.1 |
| 20260506210307 | 42 | 294 | 1.0 | 3.0 | 0.00 | 0.17 | 0.17 | 84 | 1020.6 |
| 20260506205807 | 42 | 317 | 1.0 | 3.0 | 0.00 | 0.17 | 0.17 | 84 | 1020.5 |
| 20260506205307 | 42 | 251 | 1.0 | 3.0 | 0.00 | 0.17 | 0.17 | 84 | 1020.4 |
| 20260506204807 | 42 | 291 | 1.0 | 3.0 | 0.00 | 0.17 | 0.17 | 84 | 1020.5 |
| 20260506203807 | 43 | 296 | 2.0 | 3.0 | 0.00 | 0.17 | 0.17 | 83 | 1020.4 |
| 20260506202807 | 43 | 227 | 3.0 | 6.0 | 0.00 | 0.17 | 0.17 | 82 | 1020.6 |
| 20260506201808 | 43 | 114 | 1.0 | 5.0 | 0.00 | 0.17 | 0.17 | 83 | 1020.4 |
| 20260506201307 | 43 | 288 | 2.0 | 8.0 | 0.00 | 0.17 | 0.17 | 82 | 1020.1 |
| 20260506200807 | 43 | 180 | 3.0 | 7.0 | 0.00 | 0.17 | 0.17 | 82 | 1020.0 |
| 20260506200307 | 43 | 183 | 3.0 | 9.0 | 0.00 | 0.17 | 0.17 | 82 | 1020.1 |
| 20260506195807 | 43 | 290 | 3.0 | 7.0 | 0.00 | 0.17 | 0.17 | 83 | 1019.9 |
| 20260506195308 | 43 | 311 | 5.0 | 8.0 | 0.00 | 0.17 | 0.17 | 83 | 1020.0 |
| 20260506194808 | 43 | 229 | 3.0 | 8.0 | 0.00 | 0.17 | 0.17 | 84 | 1019.9 |
| 20260506194307 | 43 | 268 | 4.0 | 8.0 | 0.00 | 0.17 | 0.17 | 84 | 1019.7 |